Location: Goettingen
(51.5300°N, 9.9433°E)
Time: 09:33:04
(UTC+02:00)

ISS - Pass Details

Date: 17 May 2018
Orbit: 402 x 407 km, 51.6° (Epoch: 27 May)

Event Time Altitude Azimuth Distance (km) Brightness Sun altitude
Exits shadow 01:06:11 15° 91° (E) 1,175 -1.5 -19.2°
Drops below altitude 10° 01:06:53 10° 85° (E) 1,433 -1.0 -19.2°
Sets 01:09:07 0° 76° (ENE) 2,321 0.2 -19.2°
